Time,TemperatureF,DewpointF,PressureIn,WindDirection,WindDirectionDegrees,WindSpeedMPH,WindSpeedGustMPH,Humidity,HourlyPrecipIn,Conditions,Clouds,dailyrainin,SoftwareType,DateUTC
2013-03-08 00:02:00,40.4,30.0,30.15,NNW,340,1.0,6.0,66,0.00,,,0.00,weatherlink.com 1.10,2013-03-08 05:02:00,
2013-03-08 00:17:00,40.2,30.0,30.15,WNW,303,2.0,6.0,66,0.00,,,0.00,weatherlink.com 1.10,2013-03-08 05:17:00,
2013-03-08 00:33:00,40.0,29.0,30.15,West,276,2.0,6.0,66,0.00,,,0.00,weatherlink.com 1.10,2013-03-08 05:33:00,
2013-03-08 00:48:00,39.8,29.0,30.15,North,349,3.0,8.0,66,0.00,,,0.00,weatherlink.com 1.10,2013-03-08 05:48:00,
2013-03-08 01:03:00,39.6,29.0,30.15,West,265,2.0,6.0,67,0.00,,,0.00,weatherlink.com 1.10,2013-03-08 06:03:00,
2013-03-08 01:18:00,39.4,29.0,30.16,NNW,347,0.0,6.0,67,0.00,,,0.00,weatherlink.com 1.10,2013-03-08 06:18:00,
2013-03-08 01:33:00,39.3,29.0,30.16,NNW,346,3.0,9.0,66,0.00,,,0.00,weatherlink.com 1.10,2013-03-08 06:33:00,
2013-03-08 01:48:00,39.1,29.0,30.16,WNW,286,2.0,7.0,66,0.00,,,0.00,weatherlink.com 1.10,2013-03-08 06:48:00,
2013-03-08 02:03:00,38.9,28.0,30.16,NNW,336,2.0,6.0,66,0.00,,,0.00,weatherlink.com 1.10,2013-03-08 07:03:00,
2013-03-08 02:18:00,38.7,28.0,30.15,NNW,340,2.0,5.0,66,0.00,,,0.00,weatherlink.com 1.10,2013-03-08 07:18:00,
2013-03-08 02:33:00,38.6,28.0,30.15,WSW,256,2.0,6.0,66,0.00,,,0.00,weatherlink.com 1.10,2013-03-08 07:33:00,
2013-03-08 02:48:00,38.6,28.0,30.14,West,281,1.0,6.0,66,0.00,,,0.00,weatherlink.com 1.10,2013-03-08 07:48:00,
2013-03-08 03:03:00,38.5,28.0,30.14,West,263,3.0,7.0,66,0.01,,,0.01,weatherlink.com 1.10,2013-03-08 08:03:00,
2013-03-08 03:18:00,38.4,28.0,30.14,NNW,332,2.0,6.0,67,0.01,,,0.01,weatherlink.com 1.10,2013-03-08 08:18:00,
2013-03-08 03:33:00,38.2,28.0,30.14,WNW,286,1.0,5.0,67,0.01,,,0.01,weatherlink.com 1.10,2013-03-08 08:33:00,
2013-03-08 03:48:00,38.0,28.0,30.14,West,267,2.0,4.0,68,0.01,,,0.01,weatherlink.com 1.10,2013-03-08 08:48:00,
2013-03-08 04:03:00,38.2,28.0,30.14,NNW,348,0.0,9.0,68,0.00,,,0.01,weatherlink.com 1.10,2013-03-08 09:03:00,
2013-03-08 04:18:00,38.2,28.0,30.14,WNW,294,1.0,7.0,68,0.00,,,0.01,weatherlink.com 1.10,2013-03-08 09:18:00,
2013-03-08 04:33:00,38.0,28.0,30.14,West,261,3.0,7.0,68,0.00,,,0.01,weatherlink.com 1.10,2013-03-08 09:33:00,
2013-03-08 04:48:00,38.0,28.0,30.15,SW,235,0.0,5.0,68,0.00,,,0.01,weatherlink.com 1.10,2013-03-08 09:48:00,
2013-03-08 05:03:00,38.1,28.0,30.15,NNW,340,1.0,7.0,68,0.00,,,0.01,weatherlink.com 1.10,2013-03-08 10:03:00,
2013-03-08 05:18:00,38.2,28.0,30.15,West,281,1.0,5.0,67,0.00,,,0.01,weatherlink.com 1.10,2013-03-08 10:18:00,
2013-03-08 05:33:00,38.0,27.0,30.15,NW,316,2.0,9.0,66,0.00,,,0.01,weatherlink.com 1.10,2013-03-08 10:33:00,
2013-03-08 05:48:00,38.1,28.0,30.15,WNW,292,1.0,6.0,66,0.00,,,0.01,weatherlink.com 1.10,2013-03-08 10:48:00,
2013-03-08 06:03:00,38.0,27.0,30.15,West,271,2.0,7.0,66,0.00,,,0.01,weatherlink.com 1.10,2013-03-08 11:03:00,
2013-03-08 06:18:00,37.9,27.0,30.15,WNW,303,1.0,4.0,66,0.00,,,0.01,weatherlink.com 1.10,2013-03-08 11:18:00,
2013-03-08 06:33:00,37.9,27.0,30.15,West,276,5.0,6.0,65,0.00,,,0.01,weatherlink.com 1.10,2013-03-08 11:33:00,
2013-03-08 06:48:00,38.1,27.0,30.15,NNW,345,1.0,5.0,64,0.00,,,0.01,weatherlink.com 1.10,2013-03-08 11:48:00,
2013-03-08 07:03:00,38.4,27.0,30.16,WSW,243,2.0,8.0,64,0.00,,,0.01,weatherlink.com 1.10,2013-03-08 12:03:00,
2013-03-08 07:18:00,38.7,27.0,30.16,North,359,2.0,8.0,64,0.01,,,0.02,weatherlink.com 1.10,2013-03-08 12:18:00,
2013-03-08 07:33:00,38.7,28.0,30.17,NW,315,2.0,4.0,65,0.01,,,0.02,weatherlink.com 1.10,2013-03-08 12:33:00,
2013-03-08 07:48:00,38.9,28.0,30.17,WSW,251,5.0,9.0,65,0.01,,,0.02,weatherlink.com 1.10,2013-03-08 12:48:00,
2013-03-08 08:03:00,38.9,28.0,30.17,North,352,0.0,9.0,64,0.01,,,0.02,weatherlink.com 1.10,2013-03-08 13:03:00,
2013-03-08 08:18:00,39.2,28.0,30.17,SW,227,0.0,12.0,64,0.00,,,0.02,weatherlink.com 1.10,2013-03-08 13:18:00,
2013-03-08 08:33:00,39.5,28.0,30.17,West,276,1.0,11.0,63,0.00,,,0.02,weatherlink.com 1.10,2013-03-08 13:33:00,
2013-03-08 08:48:00,39.9,28.0,30.17,North,350,3.0,7.0,63,0.00,,,0.02,weatherlink.com 1.10,2013-03-08 13:48:00,
2013-03-08 09:03:00,40.6,29.0,30.17,SSE,161,0.0,5.0,63,0.00,,,0.02,weatherlink.com 1.10,2013-03-08 14:03:00,
2013-03-08 09:18:00,41.2,29.0,30.17,NNW,336,3.0,9.0,63,0.00,,,0.02,weatherlink.com 1.10,2013-03-08 14:18:00,
2013-03-08 09:33:00,41.8,28.0,30.17,NNW,346,5.0,12.0,58,0.00,,,0.02,weatherlink.com 1.10,2013-03-08 14:33:00,
2013-03-08 09:48:00,41.5,28.0,30.17,ENE,58,4.0,10.0,58,0.00,,,0.02,weatherlink.com 1.10,2013-03-08 14:48:00,
2013-03-08 10:03:00,41.8,27.0,30.17,NNE,15,1.0,11.0,55,0.00,,,0.02,weatherlink.com 1.10,2013-03-08 15:03:00,
2013-03-08 10:18:00,42.4,27.0,30.18,WNW,286,4.0,9.0,55,0.00,,,0.02,weatherlink.com 1.10,2013-03-08 15:18:00,
2013-03-08 10:34:00,43.4,26.0,30.18,ENE,63,2.0,14.0,51,0.00,,,0.02,weatherlink.com 1.10,2013-03-08 15:34:00,
2013-03-08 10:49:00,43.8,26.0,30.17,SSW,196,2.0,11.0,49,0.00,,,0.02,weatherlink.com 1.10,2013-03-08 15:49:00,
2013-03-08 11:04:00,43.9,27.0,30.17,North,3,1.0,8.0,52,0.00,,,0.02,weatherlink.com 1.10,2013-03-08 16:04:00,
2013-03-08 11:19:00,44.5,27.0,30.17,NNW,332,2.0,10.0,50,0.00,,,0.02,weatherlink.com 1.10,2013-03-08 16:19:00,
2013-03-08 11:34:00,44.9,28.0,30.17,WNW,286,8.0,11.0,52,0.00,,,0.02,weatherlink.com 1.10,2013-03-08 16:34:00,
2013-03-08 11:49:00,45.1,27.0,30.17,West,276,2.0,9.0,49,0.00,,,0.02,weatherlink.com 1.10,2013-03-08 16:49:00,
2013-03-08 12:04:00,45.3,26.0,30.17,WSW,250,2.0,15.0,48,0.01,,,0.03,weatherlink.com 1.10,2013-03-08 17:04:00,
2013-03-08 12:19:00,45.6,27.0,30.17,NNW,341,2.0,11.0,48,0.01,,,0.03,weatherlink.com 1.10,2013-03-08 17:19:00,
2013-03-08 12:34:00,46.0,27.0,30.16,WNW,286,1.0,15.0,48,0.01,,,0.03,weatherlink.com 1.10,2013-03-08 17:34:00,
2013-03-08 12:49:00,46.5,27.0,30.15,NW,307,6.0,13.0,46,0.01,,,0.03,weatherlink.com 1.10,2013-03-08 17:49:00,
2013-03-08 13:04:00,46.9,27.0,30.14,West,261,0.0,12.0,46,0.00,,,0.03,weatherlink.com 1.10,2013-03-08 18:04:00,
2013-03-08 13:19:00,47.5,27.0,30.14,ESE,117,3.0,12.0,45,0.00,,,0.03,weatherlink.com 1.10,2013-03-08 18:19:00,
2013-03-08 13:34:00,48.1,28.0,30.14,North,9,7.0,9.0,45,0.00,,,0.03,weatherlink.com 1.10,2013-03-08 18:34:00,
2013-03-08 13:49:00,48.3,27.0,30.14,North,11,3.0,12.0,44,0.00,,,0.03,weatherlink.com 1.10,2013-03-08 18:49:00,
2013-03-08 14:04:00,49.0,28.0,30.13,SSW,209,2.0,16.0,45,0.00,,,0.03,weatherlink.com 1.10,2013-03-08 19:04:00,
2013-03-08 14:19:00,48.3,28.0,30.13,SW,234,3.0,11.0,46,0.00,,,0.03,weatherlink.com 1.10,2013-03-08 19:19:00,
2013-03-08 14:34:00,48.3,28.0,30.13,NNW,331,2.0,11.0,46,0.00,,,0.03,weatherlink.com 1.10,2013-03-08 19:34:00,
2013-03-08 14:49:00,49.6,28.0,30.14,NE,41,2.0,13.0,44,0.00,,,0.03,weatherlink.com 1.10,2013-03-08 19:49:00,
2013-03-08 15:04:00,49.0,28.0,30.14,NNW,332,3.0,11.0,44,0.00,,,0.03,weatherlink.com 1.10,2013-03-08 20:04:00,
2013-03-08 15:19:00,50.5,29.0,30.14,NE,43,1.0,10.0,44,0.00,,,0.03,weatherlink.com 1.10,2013-03-08 20:19:00,
2013-03-08 15:34:00,49.7,28.0,30.15,NNW,327,1.0,9.0,44,0.00,,,0.03,weatherlink.com 1.10,2013-03-08 20:34:00,
2013-03-08 15:49:00,49.0,29.0,30.15,West,276,5.0,9.0,46,0.00,,,0.03,weatherlink.com 1.10,2013-03-08 20:49:00,
2013-03-08 16:04:00,50.5,30.0,30.16,NNE,23,7.0,9.0,45,0.01,,,0.04,weatherlink.com 1.10,2013-03-08 21:04:00,
2013-03-08 16:19:00,49.7,29.0,30.16,ESE,122,2.0,10.0,46,0.01,,,0.04,weatherlink.com 1.10,2013-03-08 21:19:00,
2013-03-08 16:34:00,49.6,29.0,30.16,NNE,26,3.0,9.0,46,0.01,,,0.04,weatherlink.com 1.10,2013-03-08 21:34:00,
2013-03-08 16:49:00,49.1,29.0,30.17,NW,305,1.0,8.0,46,0.01,,,0.04,weatherlink.com 1.10,2013-03-08 21:49:00,
2013-03-08 17:04:00,49.0,29.0,30.17,NW,309,1.0,11.0,46,0.00,,,0.04,weatherlink.com 1.10,2013-03-08 22:04:00,
2013-03-08 17:19:00,49.0,29.0,30.18,NNW,346,3.0,6.0,46,0.00,,,0.04,weatherlink.com 1.10,2013-03-08 22:19:00,
2013-03-08 17:34:00,48.9,29.0,30.19,NNW,340,2.0,11.0,47,0.00,,,0.04,weatherlink.com 1.10,2013-03-08 22:34:00,
2013-03-08 17:49:00,48.8,29.0,30.20,WSW,249,1.0,9.0,47,0.00,,,0.04,weatherlink.com 1.10,2013-03-08 22:49:00,
2013-03-08 18:04:00,48.8,29.0,30.20,WSW,238,0.0,8.0,47,0.00,,,0.04,weatherlink.com 1.10,2013-03-08 23:04:00,
2013-03-08 18:19:00,48.5,29.0,30.21,ENE,61,2.0,15.0,48,0.00,,,0.04,weatherlink.com 1.10,2013-03-08 23:19:00,
2013-03-08 18:34:00,48.2,30.0,30.21,NW,317,1.0,7.0,49,0.00,,,0.04,weatherlink.com 1.10,2013-03-08 23:34:00,
2013-03-08 18:49:00,48.0,29.0,30.22,NE,45,4.0,9.0,49,0.00,,,0.04,weatherlink.com 1.10,2013-03-08 23:49:00,
2013-03-08 19:04:00,48.0,29.0,30.22,NNW,330,1.0,8.0,48,0.00,,,0.04,weatherlink.com 1.10,2013-03-09 00:04:00,
2013-03-08 19:19:00,47.9,29.0,30.22,NNE,15,2.0,10.0,49,0.00,,,0.04,weatherlink.com 1.10,2013-03-09 00:19:00,
2013-03-08 19:34:00,48.0,29.0,30.23,NNE,27,0.0,7.0,48,0.00,,,0.04,weatherlink.com 1.10,2013-03-09 00:34:00,
2013-03-08 19:49:00,47.9,29.0,30.23,North,3,1.0,8.0,48,0.00,,,0.04,weatherlink.com 1.10,2013-03-09 00:49:00,
2013-03-08 20:04:00,47.9,29.0,30.24,West,267,2.0,6.0,49,0.00,,,0.04,weatherlink.com 1.10,2013-03-09 01:04:00,
2013-03-08 20:19:00,47.9,29.0,30.24,NE,47,2.0,7.0,48,0.00,,,0.04,weatherlink.com 1.10,2013-03-09 01:19:00,
2013-03-08 20:34:00,47.9,29.0,30.25,West,276,2.0,9.0,48,0.00,,,0.04,weatherlink.com 1.10,2013-03-09 01:34:00,
2013-03-08 20:49:00,47.9,29.0,30.25,North,353,2.0,7.0,48,0.00,,,0.04,weatherlink.com 1.10,2013-03-09 01:49:00,
2013-03-08 21:04:00,47.7,29.0,30.25,NNW,330,2.0,4.0,48,0.00,,,0.04,weatherlink.com 1.10,2013-03-09 02:04:00,
2013-03-08 21:20:00,47.5,29.0,30.25,West,269,1.0,9.0,49,0.00,,,0.04,weatherlink.com 1.10,2013-03-09 02:20:00,
2013-03-08 21:35:00,47.2,29.0,30.25,WSW,248,0.0,7.0,50,0.01,,,0.05,weatherlink.com 1.10,2013-03-09 02:35:00,
2013-03-08 21:50:00,46.7,29.0,30.25,SW,227,1.0,5.0,51,0.01,,,0.05,weatherlink.com 1.10,2013-03-09 02:50:00,
2013-03-08 22:05:00,46.3,28.0,30.25,NW,314,1.0,8.0,50,0.01,,,0.05,weatherlink.com 1.10,2013-03-09 03:05:00,
2013-03-08 22:20:00,46.3,28.0,30.25,North,11,0.0,9.0,49,0.01,,,0.05,weatherlink.com 1.10,2013-03-09 03:20:00,
2013-03-08 22:35:00,45.9,28.0,30.26,WSW,258,0.0,7.0,50,0.00,,,0.05,weatherlink.com 1.10,2013-03-09 03:35:00,
2013-03-08 22:50:00,45.5,28.0,30.26,North,353,1.0,3.0,51,0.00,,,0.05,weatherlink.com 1.10,2013-03-09 03:50:00,
2013-03-08 23:05:00,44.8,28.0,30.26,NNW,348,0.0,5.0,52,0.00,,,0.05,weatherlink.com 1.10,2013-03-09 04:05:00,
2013-03-08 23:20:00,44.2,28.0,30.26,NNW,338,2.0,4.0,54,0.00,,,0.05,weatherlink.com 1.10,2013-03-09 04:20:00,
2013-03-08 23:35:00,43.7,28.0,30.26,WSW,256,1.0,4.0,55,0.00,,,0.05,weatherlink.com 1.10,2013-03-09 04:35:00,
2013-03-08 23:50:00,43.3,28.0,30.26,NNE,24,1.0,3.0,56,0.00,,,0.05,weatherlink.com 1.10,2013-03-09 04:50:00,